Time,TemperatureF,DewpointF,PressureIn,WindDirection,WindDirectionDegrees,WindSpeedMPH,WindSpeedGustMPH,Humidity,HourlyPrecipIn,Conditions,Clouds,dailyrainin,SoftwareType,DateUTC
2013-02-04 00:00:00,22.0,16.8,30.04,NW,315,6.0,17.0,80,0.00,,,-99.99,WeatherLink 5.6,2013-02-04 05:00:00,
2013-02-04 00:30:00,22.0,16.8,30.03,WNW,292,4.0,12.0,80,0.00,,,-99.99,WeatherLink 5.6,2013-02-04 05:30:00,
2013-02-04 01:00:00,21.7,16.8,30.02,WNW,292,1.0,11.0,81,0.00,,,-99.99,WeatherLink 5.6,2013-02-04 06:00:00,
2013-02-04 01:30:00,21.2,16.3,30.01,WNW,292,3.0,11.0,81,0.00,,,-99.99,WeatherLink 5.6,2013-02-04 06:30:00,
2013-02-04 02:00:00,20.4,15.8,30.01,South,180,0.0,4.0,82,0.00,,,-99.99,WeatherLink 5.6,2013-02-04 07:00:00,
2013-02-04 02:30:00,20.9,16.3,30.01,North,-999,0.0,0.0,82,0.00,,,-99.99,WeatherLink 5.6,2013-02-04 07:30:00,
2013-02-04 03:00:00,20.6,16.3,30.01,North,-999,0.0,0.0,83,0.00,,,-99.99,WeatherLink 5.6,2013-02-04 08:00:00,
2013-02-04 03:30:00,20.7,16.4,30.01,WNW,292,1.0,4.0,83,0.00,,,-99.99,WeatherLink 5.6,2013-02-04 08:30:00,
2013-02-04 04:00:00,20.7,16.6,29.99,West,270,1.0,5.0,84,0.00,,,-99.99,WeatherLink 5.6,2013-02-04 09:00:00,
2013-02-04 04:30:00,20.2,16.4,29.98,North,-999,0.0,0.0,85,0.00,,,-99.99,WeatherLink 5.6,2013-02-04 09:30:00,
2013-02-04 05:00:00,19.2,15.4,30.00,North,-999,0.0,0.0,85,0.00,,,-99.99,WeatherLink 5.6,2013-02-04 10:00:00,
2013-02-04 05:30:00,19.2,15.7,30.02,West,270,1.0,4.0,86,0.00,,,-99.99,WeatherLink 5.6,2013-02-04 10:30:00,
2013-02-04 06:00:00,20.0,16.5,30.02,WNW,292,0.0,4.0,86,0.00,,,-99.99,WeatherLink 5.6,2013-02-04 11:00:00,
2013-02-04 06:30:00,20.2,16.7,30.01,North,-999,0.0,0.0,86,0.00,,,-99.99,WeatherLink 5.6,2013-02-04 11:30:00,
2013-02-04 07:00:00,20.2,17.0,30.01,North,-999,0.0,0.0,87,0.00,,,-99.99,WeatherLink 5.6,2013-02-04 12:00:00,
2013-02-04 07:30:00,20.2,16.7,30.03,North,-999,0.0,0.0,86,0.00,,,-99.99,WeatherLink 5.6,2013-02-04 12:30:00,
2013-02-04 08:00:00,19.8,16.3,30.04,South,180,0.0,2.0,86,0.00,,,-99.99,WeatherLink 5.6,2013-02-04 13:00:00,
2013-02-04 08:30:00,20.7,17.2,30.04,South,180,3.0,10.0,86,0.00,,,-99.99,WeatherLink 5.6,2013-02-04 13:30:00,
2013-02-04 09:00:00,21.4,17.9,30.03,South,180,6.0,15.0,86,0.00,,,-99.99,WeatherLink 5.6,2013-02-04 14:00:00,
2013-02-04 09:30:00,22.3,18.5,30.00,South,180,9.0,18.0,85,0.00,,,-99.99,WeatherLink 5.6,2013-02-04 14:30:00,
2013-02-04 10:00:00,22.0,18.5,30.01,South,180,10.0,19.0,86,0.00,,,-99.99,WeatherLink 5.6,2013-02-04 15:00:00,
2013-02-04 10:30:00,23.3,19.5,30.01,South,180,12.0,21.0,85,0.00,,,-99.99,WeatherLink 5.6,2013-02-04 15:30:00,
2013-02-04 11:00:00,24.1,20.0,30.01,South,180,11.0,21.0,84,0.00,,,-99.99,WeatherLink 5.6,2013-02-04 16:00:00,
2013-02-04 11:30:00,25.7,20.7,29.99,South,180,9.0,18.0,81,0.00,,,-99.99,WeatherLink 5.6,2013-02-04 16:30:00,
2013-02-04 12:00:00,27.1,21.2,29.99,South,180,8.0,18.0,78,0.01,,,-99.99,WeatherLink 5.6,2013-02-04 17:00:00,
2013-02-04 12:30:00,28.0,21.4,29.97,South,180,7.0,18.0,76,0.01,,,-99.99,WeatherLink 5.6,2013-02-04 17:30:00,
2013-02-04 13:00:00,29.4,21.8,29.94,South,180,11.0,22.0,73,0.00,,,-99.99,WeatherLink 5.6,2013-02-04 18:00:00,
2013-02-04 13:30:00,30.1,22.2,29.93,South,180,10.0,19.0,72,0.00,,,-99.99,WeatherLink 5.6,2013-02-04 18:30:00,
2013-02-04 14:00:00,31.7,23.0,29.91,South,180,9.0,20.0,70,0.00,,,-99.99,WeatherLink 5.6,2013-02-04 19:00:00,
2013-02-04 14:30:00,32.4,23.0,29.90,South,180,9.0,20.0,68,0.00,,,-99.99,WeatherLink 5.6,2013-02-04 19:30:00,
2013-02-04 15:00:00,32.3,22.2,29.88,South,180,11.0,24.0,66,0.00,,,-99.99,WeatherLink 5.6,2013-02-04 20:00:00,
2013-02-04 15:30:00,33.4,22.1,29.87,South,180,10.0,24.0,63,0.00,,,-99.99,WeatherLink 5.6,2013-02-04 20:30:00,
2013-02-04 16:00:00,33.1,23.0,29.87,South,180,10.0,21.0,66,0.00,,,-99.99,WeatherLink 5.6,2013-02-04 21:00:00,
2013-02-04 16:30:00,33.5,23.7,29.86,South,180,10.0,21.0,67,0.00,,,-99.99,WeatherLink 5.6,2013-02-04 21:30:00,
2013-02-04 17:00:00,33.9,24.1,29.86,South,180,8.0,22.0,67,0.00,,,-99.99,WeatherLink 5.6,2013-02-04 22:00:00,
2013-02-04 17:30:00,34.4,24.9,29.85,South,180,8.0,24.0,68,0.00,,,-99.99,WeatherLink 5.6,2013-02-04 22:30:00,
2013-02-04 18:00:00,34.9,25.4,29.85,South,180,10.0,23.0,68,0.00,,,-99.99,WeatherLink 5.6,2013-02-04 23:00:00,
2013-02-04 18:30:00,36.4,26.1,29.85,SSW,202,9.0,22.0,66,0.00,,,-99.99,WeatherLink 5.6,2013-02-04 23:30:00,
2013-02-04 19:00:00,36.8,26.1,29.86,SSW,202,9.0,21.0,65,0.00,,,-99.99,WeatherLink 5.6,2013-02-05 00:00:00,
2013-02-04 19:30:00,36.9,25.9,29.86,SSW,202,7.0,21.0,64,0.00,,,-99.99,WeatherLink 5.6,2013-02-05 00:30:00,
2013-02-04 20:00:00,36.0,25.7,29.87,SSW,202,4.0,19.0,66,0.00,,,-99.99,WeatherLink 5.6,2013-02-05 01:00:00,
2013-02-04 20:30:00,35.0,25.5,29.86,South,180,3.0,15.0,68,0.00,,,-99.99,WeatherLink 5.6,2013-02-05 01:30:00,
2013-02-04 21:00:00,36.1,25.5,29.86,SSW,202,6.0,19.0,65,0.00,,,-99.99,WeatherLink 5.6,2013-02-05 02:00:00,
2013-02-04 21:30:00,33.6,24.9,29.87,South,180,6.0,16.0,70,0.00,,,-99.99,WeatherLink 5.6,2013-02-05 02:30:00,
2013-02-04 22:00:00,33.5,24.8,29.87,South,180,5.0,14.0,70,0.00,,,-99.99,WeatherLink 5.6,2013-02-05 03:00:00,
2013-02-04 22:30:00,33.1,24.7,29.86,South,180,7.0,16.0,71,0.00,,,-99.99,WeatherLink 5.6,2013-02-05 03:30:00,
2013-02-04 23:00:00,33.8,25.0,29.86,South,180,5.0,15.0,70,0.00,,,-99.99,WeatherLink 5.6,2013-02-05 04:00:00,
2013-02-04 23:30:00,33.6,25.2,29.85,South,180,4.0,15.0,71,0.00,,,-99.99,WeatherLink 5.6,2013-02-05 04:30:00,